Theta_e
353 354 354 353 354 354 354 354 355 355 355 356 357 356 356 355 355 356 356 356 356 354 353 355 357 357 357 357 356 354 353 354 354 353 353 353 352 350 351 353 353 352 351 350 350 350 350 349 346 345 345 344 344 341 336 336 339 342 343 341 342 343 343 343 342 343 343 343 344 344 343 342 343 342 341 342 342 342 343 345 345 345 345 345 344
352 353 353 353 353 353 354 354 355 355 355 355 356 356 355 355 355 356 356 358 358 356 355 356 358 357 357 357 355 354 353 354 354 354 353 353 352 351 353 353 354 353 351 350 350 348 347 347 346 345 345 343 341 337 334 337 343 343 342 342 343 343 343 342 342 342 342 342 342 343 343 343 343 342 341 340 341 341 341 342 342 342 341 341 340
351 350 352 353 352 352 353 354 354 354 355 355 355 355 355 355 355 355 355 356 357 356 355 356 356 355 355 354 353 352 353 353 354 354 354 354 353 353 354 354 354 352 349 349 347 344 344 345 345 344 343 340 338 338 336 339 343 344 343 344 343 342 342 342 342 342 342 341 341 342 342 342 343 343 341 340 340 340 339 339 339 338 337 338 338
351 349 350 351 352 352 352 353 354 354 355 355 355 356 355 355 355 355 355 354 355 355 354 354 354 354 354 354 353 353 353 353 354 355 354 354 353 354 354 354 354 351 348 348 346 343 343 343 344 343 341 338 336 338 340 341 342 344 344 343 343 342 342 341 341 342 341 341 341 342 341 341 342 341 340 340 340 339 338 337 336 336 335 334 334
352 349 349 350 351 351 351 352 353 354 355 355 355 354 354 354 353 354 354 354 354 353 353 354 355 355 356 356 355 355 354 354 355 355 355 355 355 354 354 354 354 350 348 347 345 343 342 343 343 341 338 335 334 337 340 340 340 342 343 343 342 342 341 341 340 341 340 340 341 341 341 341 340 339 340 341 340 339 339 337 336 335 331 329 329
351 350 349 350 351 351 351 352 353 353 354 354 353 353 352 353 352 353 354 354 353 352 353 354 355 356 357 357 357 356 356 356 357 356 355 355 355 354 354 353 352 350 348 347 345 344 343 341 340 338 337 336 337 338 337 338 339 340 341 342 341 341 341 340 340 340 339 340 340 340 341 340 339 338 339 340 340 339 339 337 336 333 329 328 329
349 349 349 350 350 351 351 351 352 353 353 353 352 352 352 352 352 353 353 353 353 352 353 354 355 357 357 356 357 357 357 357 356 356 355 354 354 354 352 351 350 349 348 347 345 343 341 338 335 337 339 338 338 338 337 339 340 339 340 341 340 340 340 340 340 339 340 339 339 339 339 340 340 339 339 338 339 340 339 337 335 331 329 330 329
348 348 348 349 350 350 350 351 352 351 352 353 352 351 351 352 351 352 352 352 352 351 352 353 354 356 356 356 358 358 358 357 355 354 354 353 353 351 348 346 345 346 347 346 343 340 337 335 335 337 339 338 339 338 337 339 339 338 340 340 339 339 339 340 339 339 339 339 338 338 338 338 338 338 338 338 338 338 338 337 335 333 330 328 327
347 347 347 349 350 350 350 351 351 351 352 352 351 351 350 351 351 352 351 351 351 351 351 352 353 354 355 355 357 358 358 357 355 353 353 353 351 348 344 342 341 343 345 343 340 337 334 334 336 337 338 338 338 337 336 337 338 338 338 339 339 339 339 339 339 339 339 338 338 337 337 337 336 336 336 337 337 336 336 336 336 336 332 328 327
346 345 347 349 350 350 349 350 350 351 352 351 350 350 350 351 351 351 352 351 351 351 351 352 352 353 354 355 356 357 356 355 354 353 353 352 349 345 342 340 340 342 342 339 337 335 334 335 336 337 338 339 338 337 335 335 338 338 338 338 338 338 339 339 338 339 338 338 337 337 337 337 337 337 336 335 336 336 335 336 336 335 332 330 328
346 345 346 349 351 350 349 350 351 351 351 351 351 351 351 351 351 351 351 351 351 351 351 351 351 353 354 354 355 356 355 354 354 353 353 351 346 342 340 339 339 339 338 337 335 336 336 336 336 337 339 339 338 337 336 337 340 340 339 338 337 335 337 338 338 338 338 337 336 336 337 337 337 338 337 335 335 335 335 335 336 335 332 332 329
346 345 346 348 350 351 351 351 352 352 351 351 352 352 352 351 351 351 351 351 351 350 351 351 351 352 353 353 354 354 354 354 354 353 353 350 345 341 339 338 338 338 337 336 336 336 337 336 337 338 339 338 338 337 337 339 341 340 339 339 337 335 335 337 339 338 337 337 336 336 336 336 336 336 335 335 335 335 334 334 335 335 332 333 331
346 346 347 348 350 352 352 352 353 353 352 352 352 353 353 352 351 351 351 350 350 351 351 351 352 352 353 353 353 353 354 354 354 353 353 350 345 341 339 338 338 337 336 336 337 337 337 336 335 337 338 337 337 337 337 338 339 339 339 339 338 337 336 337 338 338 337 337 336 336 336 336 336 335 335 335 335 335 334 333 333 334 333 333 332
346 347 346 348 351 352 353 354 354 354 353 352 353 353 354 353 352 352 351 351 350 351 351 351 352 352 352 352 353 353 353 354 354 354 353 351 346 342 339 338 337 336 336 336 337 337 337 336 335 336 338 337 336 336 335 337 338 338 338 338 338 338 337 337 337 338 337 335 335 336 337 336 336 336 335 335 335 335 334 333 332 332 333 332 332
347 348 347 348 352 353 354 355 354 354 353 352 353 354 354 354 352 352 353 352 351 351 351 352 352 352 352 352 352 353 353 354 354 354 354 352 348 343 339 338 337 337 336 335 336 337 338 336 334 336 338 337 336 335 336 337 337 337 338 337 338 337 336 336 336 337 337 336 335 336 336 337 336 336 336 335 335 334 334 334 332 331 332 331 331
347 347 348 349 352 354 354 355 355 355 354 353 354 355 355 354 353 352 352 352 352 351 352 352 352 352 352 352 353 353 354 354 354 354 354 353 350 345 341 338 337 337 336 336 336 337 337 336 335 337 337 336 335 334 336 339 338 338 338 337 337 337 335 336 336 337 337 337 336 336 336 337 336 336 336 335 335 334 334 334 333 332 331 330 329
347 349 349 350 352 354 354 354 354 355 354 355 355 353 353 354 354 354 354 354 353 351 352 353 353 353 353 353 353 354 354 354 354 354 354 353 351 346 341 338 337 336 336 336 337 338 338 336 336 337 336 334 335 335 335 338 338 338 338 338 338 338 336 336 337 336 337 337 337 337 337 337 337 336 335 335 335 335 335 334 334 333 331 330 329
348 350 351 350 352 353 354 354 354 354 355 356 354 352 352 354 355 355 356 355 353 352 353 353 353 353 353 354 353 354 354 354 354 354 354 354 350 344 340 338 337 336 336 336 338 338 338 336 335 336 335 334 335 336 336 336 336 337 337 337 336 336 336 336 336 336 337 337 337 337 337 337 337 336 336 335 334 335 335 335 335 334 332 331 331
348 349 350 350 351 353 354 353 354 355 356 356 355 354 355 356 355 356 355 354 353 353 354 354 353 354 354 354 354 354 354 354 354 355 355 354 348 342 338 337 336 334 335 337 339 338 336 335 335 335 335 334 335 335 335 334 334 336 337 337 336 334 334 336 336 336 337 336 337 337 337 337 336 336 336 337 336 335 335 335 335 334 333 332 332
348 348 349 349 349 351 353 353 354 355 356 356 356 355 356 356 356 357 356 356 356 355 354 354 354 354 354 354 354 354 354 354 354 355 355 352 346 340 338 337 334 333 335 338 339 338 334 333 335 336 336 336 335 334 333 333 333 333 334 336 336 334 334 336 337 337 337 336 336 337 336 336 336 336 336 336 337 336 335 335 335 334 334 333 332
349 348 348 348 348 350 352 352 354 355 355 356 355 356 356 357 357 357 358 358 358 356 354 354 354 354 354 354 354 354 354 354 354 355 354 350 343 338 336 334 332 333 336 338 338 337 333 332 334 336 335 335 335 334 332 332 332 332 331 332 333 332 333 335 335 335 336 336 336 337 337 337 336 336 336 335 335 335 334 334 334 334 333 332 331
348 348 347 347 348 350 352 353 354 355 356 355 355 356 356 357 358 358 358 359 358 358 356 354 355 354 354 354 354 354 354 353 353 353 351 346 340 336 334 333 333 334 336 336 337 336 333 331 333 334 333 333 333 333 332 332 332 332 332 332 331 330 331 332 332 333 334 335 336 336 337 337 336 335 335 334 334 333 333 333 334 333 333 332 331
347 346 346 348 349 351 353 355 356 355 356 355 356 356 357 357 358 358 359 358 358 359 356 355 355 354 354 353 352 352 351 350 351 351 349 344 338 335 333 333 334 334 334 334 335 335 333 332 333 333 333 333 332 332 333 333 332 332 332 333 332 332 331 332 333 333 333 334 335 336 336 337 336 335 335 334 333 332 332 333 333 333 332 332 331
347 346 348 349 350 354 356 357 358 357 357 357 356 356 357 358 358 358 359 359 359 360 357 356 355 353 352 352 349 347 347 349 351 351 349 344 338 334 333 334 334 333 332 332 334 334 333 333 333 332 332 333 333 333 333 333 333 333 333 334 334 333 333 333 333 333 333 333 334 335 336 336 336 335 334 333 331 330 331 332 332 332 332 332 331
349 349 350 350 351 355 357 358 359 357 357 358 357 357 357 357 359 358 359 359 359 359 357 356 355 351 349 348 346 346 348 350 352 351 348 343 337 334 333 334 335 333 331 332 333 333 333 333 332 331 331 332 333 333 333 333 333 334 334 334 334 334 334 334 334 334 332 332 333 335 335 335 336 335 334 332 331 330 330 332 332 332 332 332 331
350 350 351 353 354 356 357 358 358 357 357 358 357 358 357 357 359 359 359 359 359 359 357 356 353 349 346 346 347 348 351 352 352 350 347 341 337 333 333 334 335 333 331 332 332 333 333 333 331 331 331 331 332 333 333 333 333 333 334 334 334 333 333 333 334 335 334 331 331 333 334 334 335 335 333 332 331 330 331 332 332 332 332 331 331
350 351 352 354 355 356 356 357 357 356 356 357 357 356 357 358 358 358 359 359 360 358 356 354 351 347 346 347 347 350 353 352 350 348 344 340 336 333 333 334 335 335 332 331 332 333 334 334 333 332 331 331 331 332 332 333 333 333 334 334 332 331 330 330 331 333 334 333 332 331 332 332 333 334 333 332 331 331 331 332 332 332 332 332 331
349 350 352 354 355 355 355 356 356 356 355 356 356 356 357 358 358 358 359 359 359 357 355 352 349 346 346 346 346 350 353 350 347 346 342 338 335 334 333 334 336 337 335 333 333 334 334 334 334 333 332 330 330 331 332 333 333 333 333 332 330 329 329 328 329 331 334 334 332 331 330 331 332 332 332 332 331 331 331 332 332 332 332 332 331
348 350 352 354 354 354 354 354 356 356 355 355 355 356 357 357 357 358 358 359 358 356 354 352 348 346 345 343 344 348 348 343 343 345 340 334 332 333 333 335 337 338 337 335 335 335 335 335 335 334 332 330 329 332 333 332 331 330 330 330 329 329 328 328 329 332 333 332 331 330 330 331 331 331 331 331 331 330 330 330 330 331 332 332 331
346 349 351 353 353 354 354 354 356 355 354 355 355 355 356 355 357 358 358 358 357 355 354 351 348 346 345 343 343 344 341 338 341 343 336 327 328 329 331 335 337 338 339 337 336 336 336 335 336 334 331 329 331 333 333 331 329 329 330 329 329 329 329 329 330 332 333 332 331 330 330 330 330 330 329 330 330 330 330 328 327 329 331 332 331
346 348 350 351 353 354 353 353 355 355 355 355 355 355 355 354 355 357 358 358 356 355 353 349 347 346 344 343 342 341 340 340 341 341 331 323 325 329 331 335 336 338 341 339 337 337 336 335 335 334 331 330 332 334 332 330 330 330 330 329 329 329 329 329 330 330 332 333 333 331 329 328 328 329 329 329 329 330 330 329 327 326 327 328 329
347 349 350 351 352 353 353 353 354 355 355 354 355 355 355 355 356 356 357 357 355 354 352 348 346 345 343 342 342 341 342 343 342 338 329 323 328 333 336 337 337 338 341 339 338 337 336 335 333 330 328 331 334 335 333 331 330 331 330 330 330 330 329 329 330 330 331 331 332 331 329 327 327 328 328 328 328 328 330 330 328 326 325 326 327
348 349 349 349 349 350 352 354 354 354 354 353 354 355 355 356 356 356 356 355 354 352 350 347 345 345 344 343 342 342 343 343 341 337 331 326 330 336 338 338 337 338 340 340 338 337 337 336 332 326 325 330 334 335 335 333 331 331 331 330 329 330 330 330 330 330 330 330 329 329 329 328 327 327 327 328 327 328 330 330 328 327 326 326 326
347 347 347 349 350 351 352 354 353 353 352 353 354 354 355 356 356 355 355 354 352 350 348 346 345 345 344 343 342 342 343 343 341 338 334 330 332 337 340 339 338 339 340 340 339 338 337 336 332 325 324 329 334 335 335 334 332 332 331 331 330 331 331 331 330 330 330 330 329 329 329 329 328 328 328 327 326 328 330 330 329 328 328 327 327
347 347 348 350 350 351 352 352 352 351 351 352 353 354 354 354 354 355 354 353 351 349 347 346 345 345 345 344 343 343 344 343 339 336 335 334 335 338 340 340 339 339 340 340 339 338 337 336 333 326 324 329 334 334 334 334 334 333 332 331 332 332 332 331 331 330 330 330 329 330 330 331 331 331 329 326 326 328 330 331 330 328 328 328 329
348 349 351 352 351 351 352 351 350 350 351 352 352 353 354 354 354 354 354 352 350 348 348 346 345 345 345 345 344 343 343 341 337 334 335 335 336 337 339 340 339 339 340 340 339 338 337 337 335 328 325 329 333 333 333 333 334 334 333 331 332 333 333 333 332 331 331 331 330 330 331 332 331 330 327 325 326 327 329 330 328 326 326 328 329
348 349 351 351 349 349 349 348 349 351 352 353 354 354 354 354 354 354 354 351 349 349 348 346 345 345 345 345 343 342 340 338 336 335 335 336 338 338 339 340 339 338 339 339 339 338 338 338 337 330 326 330 334 334 333 333 334 334 333 332 332 333 333 333 333 332 332 332 331 330 330 329 328 327 326 326 326 326 327 326 325 325 326 327 327
347 348 351 351 351 350 347 347 351 354 354 354 354 354 355 355 354 354 353 351 349 350 348 347 346 345 345 345 343 340 339 337 336 336 337 339 340 338 339 340 340 338 339 339 339 339 339 339 336 332 330 333 336 336 335 334 334 333 333 332 332 332 333 333 332 330 330 330 330 329 328 328 327 326 326 326 325 326 325 323 323 325 327 326 326
350 351 353 353 352 350 348 349 353 353 352 352 353 355 355 355 354 354 353 351 350 350 348 347 347 346 345 345 342 340 340 338 337 337 338 340 340 339 340 341 340 339 340 340 339 339 338 338 336 334 334 336 336 336 336 335 334 333 333 332 332 332 333 333 331 329 329 329 328 327 328 328 327 325 325 325 325 325 323 321 322 325 326 326 326
352 354 355 355 353 352 354 355 354 351 349 350 354 355 355 355 354 353 353 352 351 350 348 348 347 346 346 345 342 341 340 339 338 338 339 340 340 339 340 341 339 340 339 339 338 338 337 337 337 336 336 336 336 336 336 335 334 333 333 332 332 332 332 332 332 331 330 330 328 327 327 326 325 324 324 325 325 324 321 320 321 323 324 325 325
353 355 356 356 355 355 356 354 351 348 348 351 354 355 355 354 353 353 354 353 352 350 348 347 347 346 346 344 341 340 340 338 337 338 339 339 338 338 339 340 339 339 338 336 336 337 338 338 338 338 337 336 336 336 335 334 333 334 334 333 332 333 332 332 333 332 331 331 330 329 328 326 324 324 324 324 324 322 320 320 320 321 322 323 322
354 354 354 354 354 353 352 350 347 347 348 349 352 354 354 353 352 353 353 352 351 350 348 347 347 346 345 344 342 340 338 337 337 338 339 338 336 336 337 338 337 337 336 335 336 337 337 338 338 338 337 336 335 335 334 334 334 334 334 333 333 333 332 331 331 331 331 331 331 330 329 326 324 324 324 323 322 320 319 319 319 320 320 320 318
352 352 351 352 352 350 348 347 345 346 347 347 350 353 352 351 351 351 350 349 348 348 348 347 347 345 344 344 343 341 339 338 339 340 339 337 335 335 336 335 335 335 335 334 335 335 336 337 338 338 337 336 335 335 334 334 333 333 333 333 332 331 329 328 329 331 331 330 330 329 328 325 324 324 323 321 320 319 318 318 318 319 319 319 318
352 351 351 352 352 350 347 344 343 344 345 346 348 350 350 350 350 348 345 345 345 346 346 347 346 345 345 344 343 342 341 341 341 340 338 337 336 336 335 334 334 334 334 334 335 336 337 338 339 339 338 337 335 334 333 333 332 332 331 330 330 329 327 327 328 329 329 329 329 328 326 324 323 322 320 319 318 317 317 317 318 319 320 320 320
353 352 351 351 351 350 347 344 342 341 341 343 346 348 349 348 346 342 341 342 343 343 345 345 345 345 344 344 343 342 341 341 341 339 338 337 337 336 335 334 334 334 334 335 337 338 338 339 339 338 338 336 333 332 332 332 331 330 330 329 329 328 327 327 326 327 328 328 327 326 324 322 321 320 318 317 317 316 316 318 320 321 321 321 320
353 352 350 349 349 349 348 346 342 339 339 340 341 345 346 344 341 340 340 340 341 342 344 343 343 344 343 343 343 342 341 342 341 339 338 337 336 336 335 334 334 334 334 337 338 338 338 338 337 337 335 334 332 332 333 332 330 329 329 329 329 328 328 328 327 326 326 325 325 324 322 320 319 318 317 318 318 318 319 320 320 319 319 319 318
351 350 350 350 352 352 351 349 345 340 339 339 339 340 341 340 339 339 338 338 340 342 342 342 342 342 342 342 342 341 341 341 341 339 337 335 335 335 334 334 335 336 336 338 337 337 337 336 336 335 334 334 334 333 333 331 331 330 329 328 328 328 328 328 327 326 325 324 323 322 319 318 317 317 318 319 319 320 319 318 317 316 315 315 314
349 349 351 353 355 354 353 351 347 342 340 339 338 338 338 338 338 338 337 338 340 341 342 341 341 340 340 341 341 340 340 340 340 338 336 335 336 336 335 336 337 337 337 337 336 336 336 335 335 335 335 335 336 334 332 330 329 329 328 328 327 327 327 327 326 325 324 322 320 319 319 319 319 318 319 319 319 319 318 316 315 313 312 311 310
348 349 349 351 353 353 351 349 345 342 340 339 337 336 337 337 337 337 337 339 340 340 340 340 339 340 340 339 339 340 340 339 338 337 336 337 337 336 337 338 338 337 336 336 335 335 334 333 334 334 334 336 336 333 329 327 326 326 326 326 326 327 327 326 325 323 321 320 319 320 321 321 320 320 320 319 318 318 317 315 314 312 311 310 309
345 345 346 347 348 348 348 346 343 341 340 339 337 336 336 336 336 336 337 338 339 339 339 339 338 339 339 338 339 339 338 337 336 335 335 334 334 335 337 337 336 335 335 334 333 333 332 332 332 332 331 332 331 329 326 325 325 324 323 324 325 325 325 325 323 320 320 320 321 322 322 321 321 321 320 319 318 318 317 316 313 311 310 309 308
344 345 346 346 345 346 347 345 343 341 340 339 338 336 335 335 334 334 336 338 339 339 339 339 339 339 338 338 339 339 337 335 334 334 335 335 334 333 333 333 332 331 332 332 332 331 331 330 330 329 328 327 326 325 325 324 322 322 322 323 323 323 323 324 322 320 320 321 322 322 321 321 321 320 319 318 317 316 316 314 312 310 309 307 307
Wind_Speed
14 16 18 19 20 20 19 18 18 18 19 20 20 23 25 26 25 25 24 22 22 25 25 21 18 17 15 15 18 20 20 18 17 16 15 14 14 13 12 11 10 10 9 10 9 7 5 3 4 4 3 3 4 5 7 7 5 4 4 6 5 5 5 5 6 6 7 7 5 4 3 2 5 7 7 5 4 4 4 4 5 5 5 5 5
12 14 16 18 19 20 19 19 19 19 20 22 23 23 26 27 26 27 25 21 20 24 26 22 19 19 18 17 20 21 21 20 18 17 16 15 15 14 13 12 11 10 10 10 10 7 5 4 4 4 4 4 4 6 8 6 3 3 4 5 4 4 3 4 6 5 5 7 6 4 3 3 5 6 7 6 4 5 5 6 5 5 6 5 5
13 14 17 19 20 20 20 19 20 21 21 23 25 25 26 27 27 28 28 26 24 25 27 26 24 23 22 21 21 20 19 20 19 18 17 15 15 14 13 13 11 11 11 11 11 9 7 6 6 5 5 4 5 6 6 4 3 3 3 3 3 3 2 2 4 4 5 6 5 3 2 2 4 5 5 4 4 5 6 6 6 6 6 5 5
15 15 16 19 20 21 20 20 21 21 20 22 24 25 26 28 29 29 30 29 29 28 28 29 27 25 24 22 21 18 18 19 19 18 17 15 14 14 14 13 12 12 12 11 11 11 9 8 7 5 4 4 5 4 4 3 2 2 2 2 2 2 2 2 3 3 4 4 3 2 1 2 2 2 6 2 3 3 5 6 7 7 7 6 7
15 16 16 17 20 21 22 22 22 21 21 22 25 28 29 31 32 31 31 30 30 29 29 28 26 21 17 16 16 16 16 16 16 16 16 14 14 15 15 14 13 13 13 12 12 11 10 8 6 5 4 4 3 2 2 3 2 1 2 1 1 2 1 1 2 2 3 3 2 2 1 1 2 5 6 1 2 2 4 5 8 8 8 8 8
15 16 16 17 19 21 21 22 22 22 23 26 29 32 33 34 33 32 31 31 30 30 28 27 26 20 16 16 14 14 15 14 14 15 15 15 15 16 15 14 14 14 14 13 12 10 9 7 5 5 5 4 2 2 3 3 2 2 2 2 2 2 1 1 1 2 2 2 2 2 1 2 2 5 4 1 2 2 4 4 7 8 9 10 10
15 16 16 16 19 20 21 23 25 25 26 29 32 34 35 35 34 33 32 31 31 30 29 28 26 21 20 21 18 16 16 16 16 16 16 17 16 15 14 13 14 14 14 13 11 9 8 6 6 6 5 4 3 3 3 3 3 3 3 3 3 2 1 1 1 1 1 1 2 1 1 2 2 3 3 3 3 1 2 4 7 8 8 9 10
15 16 16 17 19 21 23 24 27 28 27 28 32 34 36 36 36 35 34 33 32 31 30 30 28 24 24 24 20 18 18 17 19 19 17 16 14 14 14 13 13 13 13 12 10 9 7 6 7 7 6 6 5 4 4 4 4 4 4 4 3 2 2 1 1 1 1 1 1 1 1 1 2 2 2 3 3 3 2 3 6 6 6 7 9
16 16 17 18 20 23 25 25 28 29 26 28 34 36 37 37 37 36 35 35 33 32 31 31 31 29 28 26 22 21 20 18 19 18 16 15 14 14 14 13 13 13 13 12 10 9 7 7 8 8 8 7 6 5 5 5 5 5 5 5 4 3 2 2 1 2 1 1 1 1 1 1 1 1 1 2 2 3 3 2 4 4 4 5 7
16 17 17 19 23 25 26 25 27 27 27 32 36 36 36 37 37 36 36 36 35 34 32 31 31 30 30 29 25 23 22 21 19 17 16 15 15 15 15 14 14 14 14 12 11 9 8 8 9 9 9 9 8 6 6 6 6 6 6 5 4 3 3 2 2 2 2 2 2 2 2 1 1 1 1 1 2 3 3 4 4 4 3 3 5
15 16 16 20 23 24 24 24 25 26 28 31 33 32 34 35 36 37 37 37 36 35 34 33 32 31 31 31 29 26 25 23 20 18 17 16 16 17 16 16 16 15 15 13 12 11 10 9 9 10 10 10 9 7 7 7 6 6 6 5 4 3 3 3 2 2 2 3 3 3 2 2 2 2 1 1 2 3 4 4 3 4 5 2 3
14 15 15 17 18 18 20 22 23 24 26 28 29 29 31 34 36 37 37 38 37 35 34 33 33 33 33 32 30 29 27 25 22 21 20 19 19 19 18 18 18 17 16 15 14 13 11 10 10 11 11 10 9 7 7 7 6 6 6 5 5 3 3 2 3 4 4 4 4 3 3 3 3 3 2 2 3 4 4 5 4 3 3 3 5
16 14 14 14 13 15 19 21 21 23 25 28 28 27 28 33 36 36 37 38 37 36 35 34 34 34 33 33 31 30 29 27 26 23 22 21 21 22 21 21 20 18 17 17 15 14 12 10 10 11 10 9 8 8 8 7 7 6 5 5 5 4 3 3 4 5 5 5 5 4 4 4 4 3 3 3 4 4 5 6 6 4 4 4 4
15 14 15 14 13 16 20 22 22 24 26 28 28 27 27 31 34 36 37 38 38 37 36 35 35 35 34 34 33 32 31 29 28 26 24 23 23 24 23 22 21 20 18 17 16 14 12 10 10 10 10 9 8 8 8 8 8 7 6 6 6 5 4 4 5 6 6 6 5 5 5 5 5 4 4 4 5 5 6 7 7 7 6 6 4
14 14 15 14 15 18 21 22 24 25 27 27 27 26 27 30 35 37 36 37 38 37 36 36 35 35 35 35 34 34 32 31 30 27 26 24 24 25 24 23 22 19 18 17 15 14 11 10 10 10 10 9 9 9 9 9 9 8 7 6 6 5 5 5 5 6 7 6 6 6 6 6 6 6 6 6 6 6 7 8 7 6 6 5 5
14 15 15 15 17 20 21 22 24 25 26 26 26 28 30 31 35 39 39 39 39 38 38 37 36 36 36 36 35 35 33 32 31 28 26 25 25 25 25 23 21 19 17 16 14 13 12 11 12 11 11 11 10 10 9 9 9 8 8 7 7 6 6 6 6 6 7 7 7 7 7 7 7 7 8 8 7 7 8 8 7 7 6 5 5
16 16 16 16 17 20 23 23 24 25 25 26 29 35 38 35 35 37 37 37 38 40 39 37 37 37 37 37 36 35 34 33 31 29 27 25 25 25 24 22 21 18 17 16 15 14 13 13 13 12 12 11 11 10 9 9 9 8 8 8 7 7 8 8 8 8 8 8 8 9 9 9 8 8 9 9 8 8 9 9 9 9 9 6 5
17 17 16 15 17 20 24 26 26 28 27 30 36 40 39 36 36 35 34 36 39 40 40 39 39 38 38 38 37 36 34 32 31 29 26 25 25 24 24 22 20 18 18 17 15 15 15 14 15 14 13 11 11 11 10 10 9 9 9 9 9 9 10 10 10 10 10 9 10 10 10 10 10 10 10 9 10 11 11 11 11 11 10 10 9
16 16 15 15 16 20 24 26 27 28 28 31 35 35 32 32 34 34 36 40 41 39 39 39 39 39 39 39 38 36 34 32 31 28 26 25 25 25 24 22 20 19 18 18 17 16 16 16 16 15 13 12 12 11 11 10 10 10 10 10 10 11 11 11 11 11 11 11 12 11 11 11 10 10 10 10 11 13 14 14 14 13 13 13 13
15 16 16 17 18 22 26 28 28 29 29 30 30 29 29 31 32 33 34 36 37 37 39 40 39 40 39 38 38 36 35 33 31 28 25 25 25 25 25 23 21 20 19 19 18 17 17 17 16 16 14 13 12 12 11 11 11 11 10 10 11 12 12 12 11 12 13 14 14 14 13 13 11 11 11 11 11 12 14 15 15 15 15 15 14
16 15 17 18 19 23 28 29 28 28 28 29 27 27 29 29 30 32 31 30 32 36 39 40 39 40 39 38 37 36 35 33 30 27 25 25 25 25 25 23 21 21 20 20 19 18 18 17 17 16 15 14 13 13 12 12 12 12 12 12 12 13 13 13 12 12 13 15 16 16 15 15 14 12 11 11 11 11 13 14 15 15 16 15 15
16 15 17 18 17 21 25 26 25 24 24 26 26 26 28 28 28 30 29 30 31 34 39 40 39 40 39 38 37 36 34 31 27 25 24 24 25 25 25 23 21 21 20 19 19 19 18 18 18 17 16 15 15 14 14 14 14 14 14 14 14 15 15 15 14 14 15 15 16 16 16 16 15 15 13 13 12 11 12 13 13 14 16 16 16
15 16 16 15 15 18 20 22 23 23 24 27 27 27 29 29 29 28 29 31 31 32 38 41 39 38 37 36 34 31 28 26 24 24 23 24 25 25 24 22 21 21 20 20 20 20 19 19 19 19 17 17 16 16 15 15 16 16 16 17 17 18 18 17 16 16 15 15 15 15 15 15 15 15 14 13 12 11 11 12 13 13 15 16 16
13 13 12 11 12 14 15 16 19 21 23 26 26 26 27 27 27 27 28 31 30 27 32 38 38 34 31 26 20 18 20 23 25 24 24 26 27 26 24 22 22 21 20 21 21 21 20 20 21 21 20 19 19 18 17 17 18 19 19 20 20 21 21 21 19 18 17 15 14 14 14 14 14 14 14 13 12 12 11 11 12 13 14 15 15
12 11 11 11 12 12 11 13 17 20 22 23 23 24 25 25 26 27 27 28 28 25 27 34 32 24 19 16 15 18 23 27 29 27 26 28 28 27 24 22 22 22 21 22 22 22 22 22 23 23 22 22 21 20 19 19 20 21 21 22 22 22 22 22 22 21 20 18 16 15 14 14 14 14 14 13 12 12 11 10 11 12 13 13 14
12 12 11 11 11 11 11 13 16 19 20 21 22 23 24 24 25 27 26 25 26 24 24 26 21 19 22 22 25 32 34 33 33 30 28 29 28 26 24 23 23 23 22 22 23 24 25 24 24 24 24 24 22 22 21 21 22 22 23 23 23 22 21 21 21 21 21 21 19 17 17 16 15 15 15 14 13 12 11 11 11 12 13 13 14
10 10 10 10 10 12 13 13 16 18 19 20 22 23 24 24 25 25 24 22 22 21 19 19 20 24 30 35 39 41 40 38 36 30 28 29 28 26 26 25 25 25 24 24 25 26 26 26 25 25 25 25 23 23 23 22 23 24 24 23 21 20 20 20 21 21 20 20 21 20 20 19 18 18 17 17 15 13 12 12 12 12 12 13 14
10 11 12 12 12 12 12 13 15 17 19 19 21 22 22 22 22 23 23 21 19 19 20 21 25 31 37 39 40 42 43 41 37 32 29 29 29 29 28 27 27 27 26 26 27 27 27 27 26 26 26 25 24 24 24 24 24 23 22 21 20 18 18 19 20 20 20 20 21 22 22 21 20 19 19 18 17 15 13 13 13 12 12 13 14
12 13 13 13 13 12 13 14 15 17 19 19 19 20 19 21 21 22 22 20 19 23 24 25 29 33 35 36 39 42 41 37 36 34 31 31 31 32 31 30 29 28 29 29 28 27 27 27 27 27 26 25 25 25 24 23 21 20 20 20 19 17 17 18 19 18 19 20 21 21 20 20 20 19 19 19 18 18 17 16 15 14 13 13 14
15 14 13 13 13 13 13 13 14 17 19 19 19 20 21 22 21 21 22 20 22 28 27 26 30 34 35 37 38 35 29 29 34 36 35 35 37 36 34 33 32 31 31 31 29 28 28 28 28 27 26 26 26 25 24 21 20 20 20 20 19 17 16 17 18 17 17 18 19 19 20 19 19 20 20 20 20 20 20 20 19 17 15 15 15
13 13 13 12 12 12 13 13 14 17 20 20 20 19 20 21 21 21 21 21 25 28 27 28 33 36 36 36 33 29 27 32 40 40 39 41 41 38 36 34 33 32 33 32 30 29 29 29 28 27 27 27 26 25 23 21 20 20 20 20 19 18 17 18 19 18 18 17 17 18 19 19 20 21 21 22 22 22 21 22 21 21 20 19 18
12 11 11 12 13 13 14 15 16 18 20 20 19 18 19 20 20 19 20 20 23 24 26 30 33 32 33 34 34 34 36 42 45 42 42 44 41 37 35 34 33 33 33 32 31 30 30 28 27 27 28 28 27 25 22 22 22 21 21 21 21 20 20 20 20 20 20 19 19 19 21 21 22 23 23 23 22 22 21 22 21 21 22 22 22
12 12 13 14 14 14 15 15 16 19 21 21 20 19 18 18 17 18 19 20 21 23 28 30 28 26 30 33 36 39 41 44 44 42 42 42 38 35 35 35 34 34 34 33 31 31 30 29 27 27 27 29 28 25 23 22 23 22 21 22 23 22 22 22 22 22 23 23 22 22 22 23 24 24 24 22 21 21 21 21 21 21 23 24 24
11 12 13 12 10 9 11 12 14 16 16 16 17 15 14 15 17 18 20 21 22 25 29 30 26 26 30 32 35 40 42 44 45 41 38 38 36 35 35 35 35 33 33 32 31 31 30 29 28 26 26 28 28 26 24 23 24 23 22 23 24 25 25 25 25 25 25 25 26 25 25 26 25 25 24 21 19 19 18 19 19 20 21 22 23
12 12 11 10 9 8 9 9 10 12 12 13 14 14 14 15 18 19 20 23 26 28 30 30 27 27 30 31 34 40 43 44 41 36 33 34 34 33 33 33 34 34 33 32 30 29 28 28 27 25 24 27 29 27 25 24 24 25 23 24 25 26 27 27 27 27 27 28 27 26 26 24 23 23 21 19 18 17 17 17 18 18 19 19 18
9 11 11 10 10 10 10 11 12 13 13 14 15 16 16 16 18 19 20 24 28 28 27 28 27 29 31 31 34 41 44 40 36 33 32 33 32 31 31 31 32 32 31 30 29 28 27 27 27 26 25 28 29 28 25 25 26 26 25 25 26 27 28 28 28 27 27 26 26 26 25 22 21 20 19 18 18 18 16 16 17 19 19 18 17
5 8 10 11 12 13 15 16 16 15 15 15 16 17 17 17 18 19 20 23 25 25 25 27 28 29 31 31 36 42 43 38 34 32 32 31 31 31 30 29 29 28 27 28 27 26 26 27 27 27 28 30 30 27 25 25 26 26 25 25 26 28 28 28 26 23 21 22 24 24 22 19 20 20 19 19 19 18 16 16 18 18 17 18 17
9 10 12 13 14 15 18 20 18 15 14 14 15 17 17 17 17 19 20 21 22 23 25 28 28 29 30 31 36 42 43 39 34 32 30 28 28 31 31 29 28 27 26 26 24 23 25 28 28 29 30 30 30 28 25 24 24 24 24 23 25 26 25 23 21 20 21 23 24 22 19 20 24 23 20 19 18 17 17 18 18 16 15 17 16
11 12 13 14 15 15 16 17 16 14 14 15 16 17 17 16 17 18 19 20 21 23 27 28 26 27 30 30 34 42 44 37 30 28 29 27 26 29 31 30 29 27 24 22 21 22 26 28 29 30 29 29 29 28 26 25 24 24 23 22 22 21 19 17 16 20 25 25 24 22 21 22 26 25 21 18 18 17 18 18 16 13 12 14 14
11 11 13 16 17 16 13 12 13 13 15 16 17 17 16 16 16 17 18 20 22 25 27 27 24 25 28 30 36 44 44 35 27 25 25 25 27 29 29 27 26 22 20 20 21 24 26 26 26 27 26 25 26 27 26 25 23 23 22 19 18 17 16 16 16 19 22 21 20 21 21 20 21 21 18 17 17 17 17 16 16 14 12 13 13
13 13 13 14 14 14 13 13 13 14 16 17 17 16 14 14 15 16 17 19 21 22 24 23 22 24 27 29 36 44 44 37 29 23 20 22 27 30 28 25 23 21 21 22 22 22 22 21 21 20 20 22 23 24 24 23 21 20 19 17 16 17 16 15 14 15 16 15 14 16 17 17 18 18 16 15 16 16 15 16 17 16 14 14 15
14 13 14 15 14 14 15 13 13 15 16 17 17 13 11 13 14 13 15 17 19 20 20 20 21 23 25 27 32 39 40 33 25 21 20 22 27 29 27 24 22 20 20 20 20 21 21 19 18 17 18 20 22 21 19 19 17 16 16 16 16 17 16 14 13 14 13 12 12 11 12 14 15 15 14 14 14 15 15 16 18 18 17 18 18
12 11 13 16 16 14 13 12 12 14 15 15 15 12 10 11 11 11 13 15 18 19 18 18 19 21 23 26 27 29 31 26 21 21 22 23 26 29 26 23 21 19 17 18 19 20 20 18 16 14 13 14 16 16 15 14 13 13 14 15 14 15 15 13 12 12 12 11 10 11 13 15 14 11 11 11 12 13 14 15 17 17 17 18 16
12 12 13 15 14 13 13 11 11 12 13 13 12 11 11 10 9 12 14 14 15 17 17 17 18 20 22 25 24 24 24 22 21 22 23 24 26 26 24 24 23 21 19 19 19 18 16 14 12 12 10 9 10 11 10 9 9 9 10 11 11 13 13 12 11 11 11 11 11 11 12 12 10 8 9 10 10 11 13 15 15 14 12 11 9
13 14 16 17 15 14 13 12 10 9 9 9 9 9 10 9 9 11 12 11 13 15 16 17 18 19 20 22 23 23 21 21 22 23 23 23 24 23 23 24 23 21 20 18 15 14 12 11 11 11 9 7 7 6 5 5 5 6 7 7 9 11 11 12 12 11 11 12 12 12 10 9 8 9 9 10 10 11 12 12 10 7 6 6 6
12 13 15 16 15 14 13 12 10 8 7 7 6 6 7 7 8 8 9 10 13 14 15 16 17 18 18 19 21 21 20 20 22 21 19 19 21 20 21 21 21 20 18 15 12 9 8 9 10 10 8 6 5 3 3 3 3 3 4 5 7 9 11 12 12 11 12 12 11 9 8 7 8 9 9 8 7 7 6 5 4 4 4 5 5
11 9 9 11 12 11 10 11 9 7 6 6 6 6 6 6 6 7 8 11 13 14 14 15 15 16 17 18 18 18 18 18 17 16 16 18 19 18 17 17 17 15 12 9 8 8 8 10 11 9 7 6 4 3 2 2 2 3 3 4 5 7 8 8 8 7 7 7 7 7 7 7 7 7 6 4 2 2 1 1 3 3 4 5 6
11 9 8 9 9 8 8 8 7 6 5 5 5 6 6 7 8 8 10 12 13 13 13 13 14 14 15 15 15 15 16 15 13 13 15 16 15 15 15 15 14 12 10 10 11 11 11 11 10 7 5 3 2 2 2 1 2 3 3 4 5 5 4 4 3 4 5 5 5 6 5 5 4 3 1 1 2 3 2 3 4 4 5 6 7
11 11 10 9 8 7 7 6 5 4 5 5 5 6 7 9 10 11 12 13 13 12 12 12 13 12 12 13 13 13 13 12 12 14 16 15 14 14 13 12 13 13 14 15 14 12 10 9 6 4 3 2 2 2 1 2 4 4 4 5 4 3 3 4 4 4 5 5 5 5 5 5 3 2 2 2 3 3 3 4 4 4 4 4 5
9 9 8 8 6 5 5 4 4 4 6 7 7 8 8 8 9 11 13 13 13 12 11 10 11 10 10 11 11 12 13 14 16 18 19 17 14 12 12 12 14 15 15 14 12 9 8 6 4 3 2 2 2 2 3 4 5 5 5 5 3 3 4 4 5 4 4 5 5 5 5 5 3 3 3 3 3 4 4 4 3 3 3 3 4
7 6 5 4 3 3 4 5 5 5 7 7 8 9 9 9 10 11 12 12 12 11 9 9 9 9 9 8 7 9 13 17 18 19 19 18 15 12 11 12 13 12 11 10 9 7 5 4 3 3 2 2 1 2 4 4 5 4 3 2 2 2 2 4 6 5 5 4 4 4 4 3 3 3 3 3 4 4 3 2 2 2 3 3 4
Wind_Direction
211 211 210 211 212 210 209 209 208 208 209 207 207 210 214 215 214 214 216 215 217 221 221 219 217 219 220 224 231 235 238 242 245 247 248 250 251 250 245 245 249 251 244 237 238 231 222 219 221 237 244 249 268 294 306 306 305 306 305 307 314 327 326 320 324 326 325 327 327 334 4 93 127 100 67 62 64 57 61 59 60 64 62 57 49
212 213 212 213 214 212 210 210 207 207 209 211 211 213 216 217 217 217 216 212 213 219 221 217 215 217 218 223 230 233 236 240 244 247 249 251 250 242 238 242 244 244 237 231 229 220 213 208 211 225 232 249 280 302 309 310 307 307 313 321 330 337 332 328 338 345 343 341 338 333 14 92 139 119 62 51 64 65 67 60 54 51 47 46 45
209 213 213 214 216 213 210 210 210 210 210 213 215 216 217 218 218 219 219 217 218 221 223 224 225 226 228 232 234 235 237 240 244 249 253 252 244 235 235 239 241 240 230 223 223 219 216 214 223 233 236 265 295 305 309 309 306 311 322 332 337 337 336 339 350 2 352 342 333 323 8 44 147 131 34 32 78 70 69 63 54 42 33 43 52
205 211 212 212 214 213 211 210 211 210 208 210 213 215 218 220 221 221 221 221 222 224 227 228 231 232 234 237 238 238 240 244 248 251 250 243 235 234 236 237 237 231 222 219 221 221 221 223 233 238 243 280 295 297 306 306 305 310 318 329 331 330 343 350 352 4 1 356 344 329 332 343 123 52 353 29 106 61 79 71 50 39 40 57 56
203 207 209 208 209 210 211 211 210 209 208 209 212 216 219 223 224 223 223 223 224 226 227 227 228 227 227 230 233 236 239 243 244 242 237 231 232 236 237 237 232 223 219 219 220 222 225 227 233 237 251 275 281 294 309 293 287 287 295 305 304 309 324 340 339 355 8 20 4 346 324 348 41 356 345 99 93 28 101 72 46 49 57 63 54
206 207 207 205 206 207 209 210 210 211 212 213 216 220 223 225 227 226 224 224 225 226 225 224 223 218 212 213 215 220 227 229 227 224 225 227 234 238 237 234 226 219 218 218 219 223 224 227 231 228 238 244 244 295 314 288 268 259 264 263 257 269 276 322 336 353 8 32 23 15 347 336 349 343 343 344 344 53 113 65 54 65 65 61 52
210 211 208 205 205 204 207 208 209 213 214 215 218 221 224 226 227 227 226 226 226 225 223 222 221 215 214 215 211 210 216 221 221 221 227 233 237 238 235 230 221 217 218 217 217 219 219 224 223 215 221 232 245 283 302 276 246 237 238 239 242 244 229 228 305 325 350 19 19 20 348 323 323 329 335 330 333 46 84 65 70 68 68 60 51
208 209 207 207 206 204 206 205 207 213 213 213 216 219 223 225 226 227 228 227 227 226 224 222 220 217 218 218 214 213 215 219 224 227 231 233 232 230 228 226 220 216 215 213 212 214 218 219 215 215 223 238 250 267 279 261 239 231 228 228 232 230 219 207 240 278 276 313 350 338 320 318 320 309 301 322 323 318 346 74 70 58 71 63 53
207 207 206 206 206 205 206 204 207 211 210 212 216 219 221 223 224 225 226 227 227 226 224 223 223 222 222 220 216 217 218 221 226 228 228 225 223 223 221 220 217 212 208 207 209 213 219 220 220 225 230 239 246 257 268 256 237 229 227 227 224 220 217 203 217 247 257 266 256 265 281 278 288 278 258 276 282 295 314 358 15 31 67 61 56
209 208 208 207 206 206 205 205 207 207 208 214 217 217 219 220 221 222 224 225 226 226 225 225 225 224 224 222 219 219 220 222 224 224 223 221 219 217 214 213 210 206 204 205 210 213 216 222 226 228 228 233 240 253 261 250 238 231 231 230 223 216 205 194 214 229 233 244 243 253 264 272 277 254 221 247 263 272 281 304 337 1 8 41 56
206 209 210 209 208 206 203 203 204 204 207 212 213 214 216 217 218 220 223 224 224 225 225 225 225 225 225 226 224 223 223 223 222 221 220 217 214 212 210 209 205 204 205 207 211 213 216 223 226 225 224 225 233 248 250 239 231 229 232 231 225 221 204 188 204 223 231 240 242 247 253 275 290 295 306 288 290 286 287 302 321 341 329 304 360
201 207 210 208 204 201 200 201 201 201 204 206 208 209 211 213 216 217 220 223 223 223 224 224 225 225 227 228 227 226 226 226 223 223 221 216 212 210 208 206 204 204 206 209 212 213 216 221 221 218 218 222 230 241 239 229 223 225 229 228 224 228 222 201 206 218 228 234 236 240 245 256 263 272 284 269 278 288 296 304 306 323 310 270 317
200 203 206 205 197 193 197 199 198 198 201 203 204 204 206 211 214 214 217 221 221 222 223 223 224 226 227 227 227 227 228 228 227 226 224 219 214 211 209 206 204 205 207 210 212 212 216 222 222 218 220 228 237 243 241 230 224 228 231 230 229 237 244 239 230 230 234 233 227 226 231 239 243 246 251 253 270 279 283 295 302 307 292 277 303
199 200 202 202 194 191 195 194 194 198 201 202 202 201 203 207 210 213 216 219 220 220 221 222 223 226 227 226 226 226 226 227 227 227 225 222 218 215 214 212 210 211 213 214 213 214 221 229 228 222 225 237 245 248 245 233 230 234 236 236 236 242 248 247 243 240 244 244 235 229 230 236 239 236 237 248 261 268 272 285 296 298 287 281 288
197 198 202 200 193 193 195 193 194 198 199 200 200 200 201 205 209 211 213 216 218 218 219 220 222 224 225 225 225 224 225 226 226 227 226 224 222 220 220 219 218 219 221 221 218 219 228 236 229 222 230 242 246 244 239 231 231 234 235 236 236 242 248 248 250 246 245 246 242 240 240 244 246 240 239 247 254 260 267 273 280 288 289 285 287
199 201 203 200 194 194 197 197 196 197 197 197 197 199 202 205 208 211 213 214 216 217 218 219 219 221 223 223 223 223 224 224 224 225 226 226 226 225 224 224 224 226 227 224 221 224 233 234 225 223 236 244 240 235 230 225 228 230 233 236 236 243 251 254 258 256 253 250 248 249 249 253 255 251 249 251 254 262 268 267 261 264 278 290 292
198 200 199 196 193 194 197 198 197 197 195 194 197 203 205 204 206 209 211 212 214 216 217 218 218 220 221 221 221 221 221 222 223 223 225 226 227 228 228 228 227 228 227 223 222 227 232 229 222 226 238 239 231 228 226 224 227 229 233 239 243 249 256 259 263 265 265 262 258 256 257 262 263 260 260 259 262 264 265 266 259 254 259 273 287
198 198 197 195 194 195 197 198 198 197 195 196 202 205 205 204 205 206 207 210 214 215 215 216 217 218 219 219 220 220 220 222 223 224 226 226 226 226 227 227 228 228 225 222 223 226 228 226 223 227 232 231 227 227 228 228 230 234 242 249 254 258 262 265 267 269 271 270 268 265 263 265 266 266 266 266 269 271 268 267 264 256 251 256 274
198 200 199 197 197 197 197 198 199 197 197 200 203 202 201 203 205 206 208 212 214 214 214 216 217 218 219 219 219 219 220 221 223 224 225 225 226 225 225 226 227 226 223 220 221 224 226 224 222 224 226 228 231 232 233 235 237 242 250 256 262 266 267 268 270 271 271 271 270 267 264 264 266 268 268 266 268 272 271 270 267 260 251 251 262
196 199 198 198 199 199 197 198 198 196 198 201 201 198 199 202 203 205 208 210 211 213 214 216 218 218 218 219 219 218 218 219 220 221 222 224 226 226 225 225 225 223 221 219 221 225 226 222 220 221 223 228 234 236 238 241 243 248 254 259 265 269 270 269 271 273 273 271 269 266 265 265 266 269 272 272 269 270 272 272 270 263 256 253 258
194 195 197 197 198 199 199 199 198 196 198 199 198 199 201 202 203 204 204 205 208 212 215 216 217 217 217 217 217 216 216 216 216 218 221 223 225 225 225 225 225 224 221 219 222 226 226 222 221 223 225 230 234 236 240 243 246 251 255 259 264 269 270 270 272 274 274 273 271 268 268 269 270 272 276 278 276 275 275 274 273 269 264 262 260
195 195 196 196 196 196 196 194 194 195 195 196 197 200 202 202 203 203 203 204 206 210 215 216 216 216 215 215 215 214 213 211 211 214 219 223 226 226 225 225 227 227 224 222 224 227 226 224 225 227 228 231 235 236 241 245 249 252 255 258 261 264 266 266 268 271 272 272 272 272 272 273 274 276 278 278 277 276 275 273 272 271 270 269 265
198 198 198 197 193 189 186 185 186 189 190 192 196 199 201 203 204 202 202 206 206 208 213 216 215 214 212 211 211 208 205 204 207 212 217 224 228 229 227 226 229 229 226 225 227 227 227 226 228 230 230 232 236 238 242 247 250 254 255 257 259 260 262 262 262 264 267 270 273 274 274 274 275 276 277 277 276 276 273 271 271 269 270 273 270
197 197 194 189 184 179 178 182 184 186 190 193 196 199 200 203 204 203 205 208 206 205 210 214 213 209 207 203 193 188 194 203 209 214 219 224 227 229 228 229 232 232 228 227 228 228 228 228 230 231 231 233 237 240 244 248 252 255 257 259 262 263 263 262 260 261 264 267 270 272 273 273 272 272 274 274 275 277 275 272 274 272 269 273 275
192 190 182 180 181 179 182 187 187 190 193 194 195 197 199 202 203 204 207 208 205 203 204 208 207 194 178 162 160 185 203 209 213 216 219 223 226 227 227 230 234 234 231 229 228 228 228 229 229 230 231 233 237 241 246 250 254 257 260 263 266 268 267 264 261 260 262 265 266 268 271 271 270 269 271 271 272 277 279 274 274 275 272 273 276
188 185 181 180 181 182 185 187 188 192 194 193 195 197 200 203 203 205 208 206 205 202 197 197 186 152 145 158 182 200 208 211 212 213 216 223 226 226 227 231 235 236 233 231 230 229 230 231 231 231 233 235 239 243 248 252 256 260 263 266 268 269 268 267 263 260 260 263 266 268 270 271 269 269 269 268 269 274 278 275 271 273 274 274 275
182 180 178 177 180 182 184 186 188 192 193 192 196 200 201 204 204 205 208 204 201 195 182 170 155 155 172 187 195 201 207 209 206 205 213 221 224 225 227 231 235 237 235 233 232 233 234 235 237 238 239 239 242 246 251 255 259 261 263 264 264 264 266 267 267 263 260 261 265 270 272 271 270 269 268 268 269 272 275 274 271 270 271 273 275
177 180 180 179 183 181 179 184 187 190 192 193 198 200 200 202 202 202 205 202 195 186 173 164 168 180 190 192 193 201 207 204 198 198 207 216 221 225 228 232 236 238 238 237 236 236 237 238 240 242 243 244 245 249 254 257 259 259 258 257 256 258 262 265 267 266 262 261 265 269 269 269 268 268 268 269 271 271 272 273 272 268 267 269 272
183 186 184 181 180 176 177 183 185 187 189 192 196 197 198 200 199 200 202 198 191 187 182 177 180 187 189 189 195 203 202 195 193 198 203 209 217 222 225 230 235 238 241 240 238 239 241 241 242 244 246 246 246 249 254 256 256 254 253 252 252 256 260 263 263 263 262 262 264 265 266 267 268 267 269 271 272 271 269 271 274 270 264 264 269
189 186 183 181 177 175 176 179 182 186 189 191 193 195 197 199 199 199 197 193 191 191 186 179 181 187 190 191 195 196 189 185 193 199 200 205 213 218 220 225 231 236 241 242 239 240 242 243 245 246 246 245 246 249 254 254 252 251 251 250 252 256 259 260 260 259 259 260 262 264 265 266 267 267 269 271 273 272 267 267 271 270 264 261 264
191 183 178 175 171 170 174 178 185 188 189 191 193 193 195 198 200 198 193 190 191 189 184 181 185 189 190 188 187 181 179 190 199 201 200 204 212 216 217 221 227 233 239 242 240 240 241 243 245 246 245 244 245 250 254 252 250 250 249 248 251 256 256 257 258 258 258 258 260 264 267 267 267 268 270 273 277 275 268 263 266 270 269 264 262
185 176 171 171 171 173 178 183 188 189 189 191 190 188 191 195 195 191 187 185 185 183 183 184 185 186 185 182 181 180 187 197 202 202 201 204 211 216 216 218 226 232 237 240 240 239 240 242 243 245 245 244 247 252 255 254 253 253 251 249 251 254 255 257 258 257 259 261 262 264 267 269 269 271 273 275 279 279 271 263 263 268 270 268 264
174 171 174 178 179 180 183 184 184 186 189 191 188 187 190 188 183 180 180 178 177 182 185 182 179 181 180 179 181 184 190 198 203 204 203 205 211 215 215 218 224 230 235 238 240 242 242 243 244 247 246 244 249 255 257 257 257 258 257 253 251 254 257 258 258 260 262 263 264 265 266 268 272 274 275 277 280 281 274 266 265 268 270 271 270
173 177 182 182 176 175 178 178 180 182 183 183 180 179 179 176 176 179 178 176 177 181 183 182 181 183 181 179 182 187 192 199 203 205 206 207 211 214 215 218 222 228 233 237 239 242 242 243 247 251 250 248 253 258 260 261 261 262 262 257 253 256 258 259 262 263 265 265 266 266 267 269 272 273 274 279 281 278 272 267 267 269 272 274 275
175 176 177 173 167 168 166 162 165 167 166 167 171 173 173 174 178 178 176 179 182 182 183 184 184 184 183 182 183 188 195 201 203 205 208 211 213 215 216 219 223 228 233 236 240 242 243 244 250 256 256 255 257 259 261 264 264 265 265 259 256 257 259 261 263 263 265 266 266 267 267 268 269 271 276 284 286 277 268 267 270 272 275 276 275
178 170 165 159 159 159 154 152 156 160 165 170 173 174 173 172 176 175 174 180 182 181 182 184 184 185 186 184 185 190 197 202 202 204 209 213 215 216 218 221 225 229 233 238 242 245 246 249 255 259 260 259 261 262 263 266 267 266 263 259 257 258 261 263 263 264 265 265 265 266 265 264 265 266 270 279 284 278 267 265 271 275 279 280 278
141 142 138 137 147 152 155 160 164 167 170 169 168 169 167 167 173 173 172 176 179 181 183 185 187 189 187 187 188 191 196 202 203 204 208 211 213 215 217 221 225 229 234 240 243 246 250 254 257 259 261 261 262 264 266 269 271 268 263 259 257 258 261 263 263 265 266 265 268 267 264 267 269 263 259 266 275 275 270 271 275 277 280 283 284
131 138 139 143 152 156 163 168 164 158 159 159 160 163 164 166 171 173 173 175 180 184 187 188 191 190 190 191 190 191 198 205 205 205 208 209 210 212 215 220 224 227 233 238 243 249 255 258 259 260 261 261 261 264 266 269 273 272 267 262 259 259 261 262 263 266 266 269 271 266 264 273 272 260 253 261 265 264 266 271 275 276 280 285 288
141 146 145 146 148 150 158 160 149 143 153 161 162 162 165 170 173 173 175 179 185 190 192 193 192 190 191 193 191 194 203 207 204 205 207 206 206 209 213 219 224 227 234 240 246 254 258 260 261 262 262 259 259 264 266 266 268 269 268 266 262 258 256 257 262 266 267 270 267 260 265 274 266 254 253 259 259 258 262 269 273 275 279 284 289
129 132 134 138 143 146 145 137 131 142 158 162 161 163 167 170 170 173 180 186 192 196 196 194 191 189 192 193 193 198 205 207 206 206 204 201 204 208 211 216 221 226 235 246 255 260 261 261 262 263 263 260 258 262 266 267 267 268 270 267 259 255 256 258 259 260 262 265 259 258 270 272 255 249 257 262 259 260 264 269 274 274 275 279 285
121 128 131 128 126 121 112 112 128 149 159 161 161 162 163 166 170 178 189 194 196 197 195 193 191 191 193 193 193 199 205 209 210 208 202 200 204 207 209 213 218 227 238 249 259 262 259 259 260 260 260 259 260 263 267 269 270 270 270 265 258 259 262 261 257 254 254 254 253 258 269 265 248 248 261 263 259 262 266 271 275 275 273 275 279
113 119 118 109 98 93 95 107 133 151 157 161 160 154 154 165 175 186 194 196 198 197 194 192 192 193 194 194 196 201 206 210 212 208 201 201 206 209 211 213 220 230 240 250 260 261 260 261 261 260 260 259 262 266 268 270 271 270 268 264 261 263 265 261 257 254 250 250 252 251 255 257 254 255 259 257 256 262 268 272 276 278 278 278 276
90 88 93 97 95 92 94 105 130 144 150 156 154 147 151 164 177 191 197 198 200 198 194 193 193 194 196 197 199 201 204 207 211 207 200 199 204 209 210 210 217 230 242 252 260 263 265 265 262 259 259 258 263 269 270 269 269 265 263 262 259 261 265 261 253 250 251 255 255 250 252 261 265 259 253 253 258 265 271 275 277 277 278 276 272
72 70 77 86 90 92 90 95 115 133 143 151 153 152 154 161 179 195 197 197 198 196 193 193 194 194 197 199 200 198 199 204 208 204 198 199 204 207 206 208 217 230 242 252 260 263 263 260 255 252 249 250 261 268 268 263 256 250 253 257 256 258 264 262 253 252 258 260 254 252 260 268 266 255 253 258 265 272 279 282 281 277 272 264 253
73 71 74 79 84 90 90 86 88 107 131 145 152 153 151 156 176 190 192 192 192 190 189 193 197 197 198 199 199 196 198 204 207 202 197 200 207 208 206 208 218 229 239 248 256 257 254 250 249 248 243 240 250 256 256 257 254 248 249 254 259 264 266 265 260 254 253 253 253 257 265 267 261 260 268 277 281 282 282 280 272 261 248 241 242
83 81 85 91 95 96 96 93 87 91 115 133 145 148 145 154 174 181 184 189 188 183 184 191 197 198 197 197 194 191 195 203 205 201 198 202 210 214 210 211 220 231 238 243 243 241 243 246 247 245 235 224 219 218 233 253 264 267 265 266 272 274 271 269 266 257 250 251 255 259 260 259 265 276 284 287 283 278 278 269 249 234 237 245 255
84 90 99 103 102 100 101 103 103 107 123 137 149 151 151 163 171 171 180 187 185 179 180 188 194 194 193 194 191 188 193 200 198 194 198 205 213 220 220 220 225 229 230 231 226 222 225 231 234 232 219 204 193 202 232 262 282 291 290 288 289 285 278 276 273 261 250 246 246 250 255 260 274 288 296 294 253 223 244 264 252 253 258 265 274
63 65 66 72 77 83 91 97 107 121 135 144 148 152 161 166 163 163 173 179 179 176 176 182 188 187 186 187 186 185 188 190 183 183 193 200 204 209 212 215 218 217 213 214 215 215 219 222 221 217 208 193 178 188 194 264 295 289 287 291 294 290 279 270 251 229 220 220 227 237 243 248 255 265 297 121 165 187 239 269 269 273 280 287 294
45 44 44 48 55 65 75 83 100 126 138 143 145 153 163 161 157 160 167 169 169 170 171 174 179 181 180 180 183 183 177 169 164 172 180 184 186 191 198 208 215 218 218 215 208 204 210 214 209 205 208 194 185 197 230 322 317 311 307 300 291 266 239 239 235 220 210 213 218 218 217 215 205 185 178 199 210 227 250 254 260 278 288 292 300
45 45 48 49 53 69 90 108 137 154 154 151 150 153 157 156 157 162 166 165 162 160 161 164 170 177 178 176 179 183 180 175 174 175 174 173 175 183 194 205 211 213 212 208 199 195 200 201 193 199 214 205 209 258 311 325 327 325 317 303 278 229 217 236 249 244 226 216 213 216 220 216 203 209 234 244 251 265 262 247 249 275 282 289 296
58 62 66 71 84 116 139 150 162 167 160 153 151 156 161 164 168 169 167 162 155 150 151 156 161 165 167 164 166 178 185 185 181 177 173 168 165 169 183 195 200 200 197 191 184 181 183 183 186 196 200 198 239 293 311 319 324 323 312 294 263 218 211 236 255 259 248 230 223 232 234 213 206 230 247 251 262 270 263 255 275 286 288 298 300